1998-067PK (43598 NORAD) Tracking and Keplerian Element Data

This shows tracking and keplerian element data for the satellite.

Feedback or suggestion? Click here.




ElementValue
Catalog43598
Name1998-067PK
Epoch Orbit1481
Epoch Day322.91557507
Epoch Year2018
RAAN326.6814
Inclination51.6383
Eccentricity0.0005044
Argument of Perigee49.2794
Mean Anonmoly310.8635
Mean Motion15.56381664
Decay Rate0.00012522
L11 43598U 98067PK 18322.91557507 .00012522 00000-0 18063-3 0 9997
L22 43598 51.6383 326.6814 0005044 49.2794 310.8635 15.56381664 14810

Live tracking and technical data element details for 1998-067PK (NORAD 43598). 1998-067PK can be tracked NOW for your location showing map with azimuth and elevation plus other details from your city location.

Track the satellite on the map from your city or location and see movement details for azimuth, elevation, latitude, longitude, range, height, and movement on the map or in text.







IsCatalogInMostPopularTable: catalog: 43598, numindb: 47
Update: records affected: 1



GetName: 43598 1998-067PK

Hit Count: updated at: Tue, 20 Nov 2018 11:13:01 GMT